�������l�o���
Date,Time,MP-1(��Sv/h),MP-2(��Sv/h),MP-3(��Sv/h),MP-4(��Sv/h),MP-5(��Sv/h),MP-6(��Sv/h),MP-7(��Sv/h),MP-8(��Sv/h),����,����(m/s),���J
2016/09/26,00:00,1.115,1.856,1.347,2.032,1.407,0.599,1.054,0.976,�k��,2.1,��
2016/09/26,00:10,1.119,1.854,1.345,2.030,1.403,0.597,1.052,0.976,���k��,2.5,��
2016/09/26,00:20,1.118,1.853,1.348,2.032,1.406,0.599,1.052,0.975,���k��,1.8,��
2016/09/26,00:30,1.116,1.853,1.346,2.032,1.403,0.598,1.053,0.975,�k��,2.2,��
2016/09/26,00:40,1.117,1.853,1.344,2.030,1.404,0.598,1.053,0.975,�k��,3.2,��
2016/09/26,00:50,1.118,1.855,1.346,2.031,1.405,0.599,1.051,0.976,�k��,3.6,��
2016/09/26,01:00,1.117,1.856,1.346,2.029,1.407,0.597,1.052,0.977,�k��,3.1,��
2016/09/26,01:10,1.116,1.850,1.346,2.029,1.409,0.597,1.053,0.975,�k�k��,2.5,��
2016/09/26,01:20,1.118,1.855,1.347,2.032,1.402,0.596,1.051,0.976,�k��,1.3,��
2016/09/26,01:30,1.117,1.852,1.348,2.033,1.405,0.599,1.051,0.976,�k�k��,1.6,�L
2016/09/26,01:40,1.117,1.855,1.345,2.031,1.407,0.598,1.053,0.975,�k,2.2,��
2016/09/26,01:50,1.117,1.854,1.348,2.027,1.404,0.598,1.051,0.974,�k,2.2,��
2016/09/26,02:00,1.117,1.853,1.348,2.029,1.406,0.596,1.051,0.974,�k�k��,2.3,��
2016/09/26,02:10,1.117,1.854,1.349,2.031,1.405,0.597,1.051,0.974,�k�k��,2.2,��
2016/09/26,02:20,1.118,1.854,1.346,2.031,1.404,0.599,1.051,0.974,�k�k��,2.4,��
2016/09/26,02:30,1.116,1.854,1.346,2.031,1.402,0.598,1.051,0.975,�k�k��,1.4,��
2016/09/26,02:40,1.118,1.854,1.348,2.031,1.408,0.600,1.052,0.974,�k��,0.9,��
2016/09/26,02:50,1.118,1.854,1.345,2.031,1.404,0.598,1.052,0.975,���k��,1.7,��
2016/09/26,03:00,1.117,1.852,1.346,2.030,1.402,0.599,1.052,0.976,�k��,3.9,��
2016/09/26,03:10,1.117,1.850,1.347,2.030,1.406,0.596,1.052,0.975,�k�k��,1.9,��
2016/09/26,03:20,1.117,1.853,1.345,2.032,1.404,0.598,1.054,0.975,�k�k��,2.3,��
2016/09/26,03:30,1.117,1.854,1.346,2.027,1.406,0.597,1.053,0.975,�k,2.5,��
2016/09/26,03:40,1.118,1.852,1.346,2.028,1.404,0.599,1.051,0.974,�k,1.8,��
2016/09/26,03:50,1.114,1.855,1.347,2.029,1.406,0.597,1.050,0.976,�k,2.3,��
2016/09/26,04:00,1.116,1.851,1.346,2.028,1.403,0.597,1.050,0.976,�k,3.8,��
2016/09/26,04:10,1.116,1.851,1.347,2.032,1.405,0.597,1.051,0.975,�k�k��,3.5,��
2016/09/26,04:20,1.118,1.851,1.348,2.032,1.402,0.596,1.052,0.975,�k�k��,3.2,��
2016/09/26,04:30,1.117,1.852,1.346,2.030,1.404,0.597,1.054,0.975,�k�k��,4.1,�L
2016/09/26,04:40,1.120,1.850,1.346,2.028,1.407,0.597,1.050,0.974,�k,4.4,��
2016/09/26,04:50,1.115,1.848,1.347,2.029,1.402,0.595,1.052,0.975,�k,4.6,��
2016/09/26,05:00,1.114,1.850,1.346,2.030,1.404,0.594,1.051,0.975,�k,4.9,��
2016/09/26,05:10,1.116,1.851,1.346,2.030,1.405,0.598,1.051,0.976,�k,5.3,��
2016/09/26,05:20,1.114,1.849,1.345,2.032,1.405,0.597,1.051,0.973,�k,5.3,��
2016/09/26,05:30,1.115,1.848,1.343,2.029,1.403,0.596,1.051,0.973,�k�k��,4.9,��
2016/09/26,05:40,1.116,1.851,1.345,2.031,1.404,0.594,1.050,0.974,�k�k��,3.5,��
2016/09/26,05:50,1.117,1.847,1.344,2.028,1.403,0.594,1.051,0.973,�k�k��,4.1,��
2016/09/26,06:00,1.114,1.851,1.345,2.028,1.405,0.597,1.051,0.973,�k�k��,3.8,��
2016/09/26,06:10,1.116,1.850,1.344,2.027,1.402,0.595,1.051,0.976,�k�k��,2.9,��
2016/09/26,06:20,1.115,1.850,1.345,2.031,1.403,0.595,1.049,0.975,�k��,1.4,��
2016/09/26,06:30,1.114,1.850,1.345,2.029,1.404,0.595,1.051,0.975,�k��,0.8,��
2016/09/26,06:40,1.116,1.852,1.344,2.027,1.403,0.596,1.050,0.973,�k�k��,1.0,��
2016/09/26,06:50,1.114,1.850,1.345,2.028,1.404,0.594,1.050,0.975,���k��,1.0,��
2016/09/26,07:00,1.115,1.850,1.344,2.033,1.405,0.595,1.051,0.976,���k��,0.8,��
2016/09/26,07:10,1.115,1.851,1.344,2.033,1.405,0.595,1.051,0.972,-,CALM,��
2016/09/26,07:20,1.116,1.850,1.343,2.030,1.403,0.596,1.051,0.975,��쐼,1.7,��
2016/09/26,07:30,1.115,1.852,1.344,2.031,1.405,0.597,1.052,0.974,��쐼,2.6,��
2016/09/26,07:40,1.116,1.852,1.344,2.030,1.405,0.597,1.050,0.973,��,1.2,��
2016/09/26,07:50,1.114,1.851,1.345,2.030,1.405,0.597,1.051,0.974,���쐼,0.7,��
2016/09/26,08:00,1.113,1.850,1.346,2.031,1.405,0.596,1.051,0.974,���k��,0.8,��
2016/09/26,08:10,1.117,1.849,1.344,2.032,1.403,0.597,1.049,0.975,�k��,0.9,��
2016/09/26,08:20,1.114,1.850,1.344,2.032,1.403,0.595,1.050,0.974,�k�k��,1.2,��
2016/09/26,08:30,1.117,1.848,1.345,2.032,1.407,0.595,1.050,0.973,�k�k��,3.1,��
2016/09/26,08:40,1.117,1.853,1.346,2.036,1.405,0.596,1.050,0.976,�k�k��,3.4,��
2016/09/26,08:50,1.116,1.851,1.347,2.033,1.405,0.595,1.052,0.976,�k,3.9,��
2016/09/26,09:00,1.115,1.850,1.344,2.034,1.407,0.594,1.050,0.973,�k�k��,3.4,��
2016/09/26,09:10,1.113,1.850,1.344,2.030,1.406,0.594,1.049,0.977,�k�k��,3.4,��
2016/09/26,09:20,1.112,1.851,1.342,2.032,1.405,0.594,1.050,0.972,�k�k��,3.3,��
2016/09/26,09:30,1.114,1.855,1.342,2.031,1.404,0.594,1.048,0.974,�k�k��,3.1,��
2016/09/26,09:40,1.112,1.854,1.341,2.031,1.404,0.595,1.052,0.974,�k�k��,2.5,��
2016/09/26,09:50,1.112,1.857,1.343,2.032,1.408,0.595,1.051,0.973,�k,2.0,��
2016/09/26,10:00,1.113,1.853,1.342,2.031,1.408,0.594,1.049,0.973,�k,4.4,��
2016/09/26,10:10,1.112,1.851,1.341,2.035,1.406,0.594,1.051,0.972,�k�k��,4.1,��
2016/09/26,10:20,1.113,1.853,1.339,2.037,1.407,0.592,1.052,0.972,�k��,3.8,��
2016/09/26,10:30,1.113,1.853,1.344,2.036,1.406,0.594,1.052,0.972,�k��,3.0,��
2016/09/26,10:40,1.114,1.854,1.343,2.035,1.405,0.594,1.050,0.975,�k��,3.1,��
2016/09/26,10:50,1.110,1.851,1.343,2.033,1.408,0.594,1.051,0.975,�k�k��,2.6,��
2016/09/26,11:00,1.114,1.852,1.346,2.036,1.407,0.594,1.052,0.974,�k�k��,2.1,��
2016/09/26,11:10,1.114,1.855,1.347,2.035,1.409,0.593,1.054,0.974,�k,1.6,��
2016/09/26,11:20,1.114,1.855,1.346,2.033,1.410,0.595,1.051,0.975,�k��,2.6,��
2016/09/26,11:30,1.114,1.855,1.346,2.036,1.410,0.593,1.051,0.974,�k��,2.7,��
2016/09/26,11:40,1.116,1.854,1.344,2.033,1.408,0.594,1.051,0.973,�k�k��,4.2,��
2016/09/26,11:50,1.115,1.853,1.344,2.035,1.408,0.596,1.051,0.971,�k,4.1,��
2016/09/26,12:00,1.115,1.853,1.343,2.034,1.408,0.595,1.052,0.972,�k,4.5,��
2016/09/26,12:10,1.112,1.853,1.347,2.034,1.408,0.594,1.051,0.972,�k,4.4,��
2016/09/26,12:20,1.112,1.856,1.345,2.034,1.409,0.595,1.051,0.972,�k,4.1,��
2016/09/26,12:30,1.115,1.855,1.347,2.033,1.409,0.595,1.053,0.971,�k,4.4,��
2016/09/26,12:40,1.116,1.851,1.344,2.038,1.407,0.594,1.053,0.972,�k�k��,4.9,��
2016/09/26,12:50,1.114,1.857,1.344,2.036,1.411,0.593,1.053,0.972,�k�k��,3.5,��
2016/09/26,13:00,1.116,1.855,1.343,2.036,1.408,0.596,1.053,0.973,�k�k��,3.2,��
2016/09/26,13:10,1.117,1.857,1.346,2.036,1.412,0.594,1.054,0.972,�k�k��,2.8,��
2016/09/26,13:20,1.114,1.857,1.344,2.037,1.410,0.593,1.052,0.975,�k�k��,1.8,��
2016/09/26,13:30,1.114,1.859,1.346,2.038,1.410,0.595,1.053,0.974,�k��,1.8,��
2016/09/26,13:40,1.117,1.853,1.344,2.033,1.407,0.596,1.053,0.973,���k��,2.2,��
2016/09/26,13:50,1.118,1.856,1.345,2.036,1.411,0.594,1.051,0.973,���k��,1.6,��
2016/09/26,14:00,1.118,1.857,1.345,2.038,1.411,0.596,1.055,0.973,���k��,1.8,��
2016/09/26,14:10,1.120,1.858,1.344,2.036,1.413,0.596,1.053,0.974,�k��,0.7,��
2016/09/26,14:20,1.117,1.859,1.343,2.035,1.414,0.593,1.054,0.976,-,CALM,��
2016/09/26,14:30,1.117,1.859,1.343,2.040,1.412,0.594,1.054,0.974,���k��,0.5,��
2016/09/26,14:40,1.116,1.861,1.348,2.040,1.412,0.596,1.054,0.974,-,CALM,��
2016/09/26,14:50,1.116,1.857,1.347,2.038,1.414,0.594,1.051,0.975,-,CALM,��
2016/09/26,15:00,1.117,1.860,1.347,2.038,1.413,0.594,1.050,0.974,-,CALM,��
2016/09/26,15:10,1.119,1.859,1.347,2.039,1.413,0.594,1.050,0.973,���k��,0.6,��
2016/09/26,15:20,1.118,1.861,1.349,2.038,1.411,0.594,1.053,0.973,�k�k��,1.4,��
2016/09/26,15:30,1.117,1.860,1.348,2.038,1.412,0.597,1.054,0.972,�k,1.2,�L
2016/09/26,15:40,1.117,1.856,1.346,2.037,1.412,0.597,1.052,0.973,�k,1.1,�L
2016/09/26,15:50,1.115,1.855,1.346,2.039,1.408,0.597,1.051,0.972,�k,0.9,�L
2016/09/26,16:00,1.116,1.851,1.342,2.033,1.406,0.594,1.051,0.972,�k,1.2,�L
2016/09/26,16:10,1.112,1.848,1.341,2.033,1.403,0.595,1.052,0.969,�k�k��,0.9,�L
2016/09/26,16:20,1.114,1.845,1.345,2.029,1.405,0.596,1.050,0.971,�k,0.6,�L
2016/09/26,16:30,1.114,1.845,1.340,2.030,1.403,0.596,1.047,0.972,�k,0.9,�L
2016/09/26,16:40,1.109,1.846,1.338,2.031,1.404,0.596,1.048,0.971,���k��,2.4,�L
2016/09/26,16:50,1.112,1.843,1.339,2.025,1.399,0.595,1.049,0.968,�k�k��,1.0,�L
2016/09/26,17:00,1.111,1.838,1.335,2.026,1.400,0.595,1.049,0.969,-,CALM,�L
2016/09/26,17:10,1.111,1.842,1.339,2.029,1.402,0.593,1.046,0.972,-,CALM,��
2016/09/26,17:20,1.109,1.844,1.338,2.025,1.398,0.594,1.048,0.970,�k,1.0,��
2016/09/26,17:30,1.109,1.843,1.336,2.026,1.399,0.593,1.047,0.970,�k,0.7,�L
2016/09/26,17:40,1.108,1.842,1.338,2.026,1.400,0.593,1.048,0.969,-,CALM,�L
2016/09/26,17:50,1.112,1.843,1.336,2.024,1.400,0.594,1.045,0.968,-,CALM,�L
2016/09/26,18:00,1.106,1.837,1.332,2.020,1.396,0.592,1.045,0.968,-,CALM,�L
2016/09/26,18:10,1.105,1.829,1.334,2.016,1.397,0.590,1.044,0.967,���쐼,0.8,�L
2016/09/26,18:20,1.105,1.830,1.331,2.017,1.392,0.593,1.045,0.968,���k��,1.0,�L
2016/09/26,18:30,1.105,1.832,1.334,2.020,1.392,0.593,1.044,0.968,���k��,1.3,��
2016/09/26,18:40,1.104,1.831,1.333,2.019,1.393,0.592,1.045,0.968,�k�k��,1.0,��
2016/09/26,18:50,1.106,1.833,1.333,2.016,1.393,0.592,1.041,0.968,��,0.7,��
2016/09/26,19:00,1.105,1.832,1.333,2.014,1.394,0.593,1.044,0.967,��,1.8,��
2016/09/26,19:10,1.104,1.830,1.331,2.020,1.398,0.593,1.045,0.967,��,2.3,��
2016/09/26,19:20,1.105,1.833,1.329,2.017,1.394,0.593,1.044,0.969,��,1.7,��
2016/09/26,19:30,1.105,1.832,1.332,2.017,1.391,0.594,1.044,0.968,���k��,0.8,��
2016/09/26,19:40,1.106,1.833,1.333,2.016,1.396,0.593,1.045,0.968,���쐼,0.9,��
2016/09/26,19:50,1.106,1.836,1.333,2.018,1.394,0.591,1.046,0.969,���쐼,1.5,��
2016/09/26,20:00,1.106,1.831,1.333,2.016,1.394,0.592,1.046,0.969,���쐼,1.8,��
2016/09/26,20:10,1.104,1.835,1.333,2.015,1.396,0.590,1.045,0.969,�쐼,1.7,��
2016/09/26,20:20,1.105,1.835,1.331,2.019,1.392,0.591,1.046,0.970,�쐼,1.3,��
2016/09/26,20:30,1.108,1.832,1.334,2.014,1.394,0.590,1.044,0.969,�쐼,1.8,��
2016/09/26,20:40,1.105,1.835,1.333,2.017,1.395,0.591,1.044,0.968,��쐼,1.6,��
2016/09/26,20:50,1.108,1.837,1.335,2.018,1.392,0.592,1.045,0.969,��,1.8,��
2016/09/26,21:00,1.107,1.834,1.333,2.018,1.396,0.593,1.044,0.969,��,1.9,��
2016/09/26,21:10,1.109,1.833,1.332,2.017,1.396,0.592,1.044,0.971,��,2.0,��
2016/09/26,21:20,1.106,1.837,1.331,2.018,1.395,0.592,1.047,0.971,��,3.0,��
2016/09/26,21:30,1.106,1.835,1.333,2.021,1.395,0.593,1.047,0.970,��,2.9,��
2016/09/26,21:40,1.106,1.837,1.330,2.016,1.397,0.594,1.045,0.969,��,2.4,��
2016/09/26,21:50,1.106,1.835,1.333,2.018,1.396,0.595,1.045,0.970,��,2.3,�L
2016/09/26,22:00,1.107,1.831,1.333,2.018,1.397,0.594,1.045,0.971,��,2.7,�L
2016/09/26,22:10,1.103,1.831,1.332,2.018,1.394,0.591,1.045,0.970,��쐼,1.3,�L
2016/09/26,22:20,1.105,1.831,1.334,2.018,1.393,0.594,1.044,0.969,��쐼,1.4,�L
2016/09/26,22:30,1.104,1.834,1.331,2.018,1.393,0.592,1.045,0.969,-,CALM,�L
2016/09/26,22:40,1.101,1.827,1.329,2.016,1.393,0.591,1.043,0.968,-,CALM,�L
2016/09/26,22:50,1.102,1.827,1.329,2.015,1.391,0.590,1.041,0.967,���쐼,0.9,��
2016/09/26,23:00,1.104,1.829,1.330,2.016,1.391,0.594,1.041,0.968,��쐼,1.6,�L
2016/09/26,23:10,1.102,1.828,1.330,2.014,1.392,0.593,1.042,0.967,��쐼,0.6,��
2016/09/26,23:20,1.103,1.828,1.328,2.014,1.390,0.591,1.043,0.967,�쐼,1.0,��
2016/09/26,23:30,1.100,1.829,1.328,2.014,1.391,0.593,1.042,0.968,�쐼,0.6,��
2016/09/26,23:40,1.104,1.827,1.326,2.016,1.392,0.592,1.042,0.967,��쐼,0.5,�L
2016/09/26,23:50,1.102,1.828,1.328,2.015,1.389,0.593,1.044,0.966,-,CALM,��
